Location: Newark
(37.8333°N, 119.5000°W)
Time: 16:31:00
(UTC+00:00)

Vanguard 1 Rocket - Visible Passes

Search period start: 21 August 2019 00:00
Search period end: 31 August 2019 00:00
Orbit: 652 x 4224 km, 34.3° (Epoch: 20 August)

Date Brightness Start Highest point End Pass type
(mag) Time Alt. Az. Time Alt. Az. Time Alt. Az.
21 Aug 7.4 10:54:24 49° SSE 10:54:24 49° SSE 11:00:13 10° E visible
22 Aug 9.4 09:47:15 13° E 09:47:15 13° E 09:48:00 10° E visible
22 Aug 7.5 12:04:32 21° WSW 12:07:54 64° S 12:15:50 10° E visible
23 Aug 7.2 10:57:24 55° SSE 10:57:24 55° SSE 11:03:05 10° E visible
24 Aug 9.4 09:50:17 14° E 09:50:17 14° E 09:51:04 10° E visible
24 Aug 7.5 12:07:34 21° WSW 12:10:54 61° S 12:18:32 10° ESE visible
25 Aug 7.1 11:00:28 57° SSE 11:00:28 57° SSE 11:05:57 10° E visible
26 Aug 9.4 09:53:22 13° E 09:53:22 13° E 09:54:04 10° E visible
26 Aug 7.5 12:10:40 21° WSW 12:13:53 54° S 12:21:11 10° ESE visible
27 Aug 7.2 11:03:37 54° SSE 11:03:37 54° SSE 11:08:48 10° ESE visible
28 Aug 9.5 09:56:35 12° E 09:56:35 12° E 09:57:03 10° E visible
28 Aug 7.6 12:13:53 21° WSW 12:16:53 45° SSW 12:23:43 10° ESE visible
29 Aug 7.4 11:06:52 47° SSE 11:06:52 47° SSE 11:11:36 10° ESE visible
30 Aug 9.6 09:59:54 10° ESE 09:59:54 10° ESE 10:00:00 10° E visible
30 Aug 7.9 12:17:12 21° WSW 12:19:53 36° SSW 12:26:06 10° SE visible
